| time (UTC) | temp C | wind direction | speed KPH | gust KPH | rain 1hr cm | rain 24hr cm | rain mn cm | humidity % | barometer mb |
| 20260508194525 | 16 | 291 | 1.6 | 14.5 | 0.00 | 0.00 | 0.00 | 52 | 1009.3 |
| 20260508193010 | 17 | 248 | 0.0 | 11.3 | 0.00 | 0.00 | 0.00 | 48 | 1009.5 |
| 20260508191514 | 17 | 207 | 4.8 | 11.3 | 0.00 | 0.00 | 0.00 | 45 | 1009.7 |
| 20260508190014 | 16 | 9 | 6.4 | 12.9 | 0.00 | 0.00 | 0.00 | 49 | 1009.8 |
| 20260508184516 | 16 | 209 | 4.8 | 12.9 | 0.00 | 0.00 | 0.00 | 46 | 1010.0 |
| 20260508183021 | 16 | 220 | 3.2 | 12.9 | 0.00 | 0.00 | 0.00 | 47 | 1010.2 |
| 20260508181513 | 16 | 221 | 3.2 | 12.9 | 0.00 | 0.00 | 0.00 | 52 | 1010.2 |
| 20260508180015 | 15 | 332 | 1.6 | 12.9 | 0.00 | 0.00 | 0.00 | 49 | 1010.5 |
| 20260508174516 | 15 | 261 | 4.8 | 16.1 | 0.00 | 0.00 | 0.00 | 52 | 1010.5 |
| 20260508173017 | 15 | 342 | 6.4 | 14.5 | 0.00 | 0.00 | 0.00 | 54 | 1010.9 |
| 20260508171518 | 15 | 351 | 1.6 | 16.1 | 0.00 | 0.00 | 0.00 | 53 | 1011.0 |
| 20260508170018 | 15 | 61 | 1.6 | 8.0 | 0.00 | 0.00 | 0.00 | 57 | 1011.2 |
| 20260508164517 | 14 | 262 | 1.6 | 4.8 | 0.00 | 0.00 | 0.00 | 57 | 1011.3 |
| 20260508163019 | 14 | 340 | 1.6 | 6.4 | 0.00 | 0.00 | 0.00 | 58 | 1011.5 |
| 20260508161516 | 14 | 222 | 3.2 | 9.7 | 0.00 | 0.00 | 0.00 | 63 | 1011.8 |
| 20260508160013 | 15 | 206 | 1.6 | 12.9 | 0.00 | 0.00 | 0.00 | 63 | 1011.8 |
| 20260508154539 | 14 | 323 | 4.8 | 8.0 | 0.00 | 0.00 | 0.00 | 64 | 1012.0 |
| 20260508153016 | 14 | 208 | 1.6 | 8.0 | 0.00 | 0.00 | 0.00 | 67 | 1011.9 |
| 20260508151521 | 13 | 323 | 6.4 | 8.0 | 0.00 | 0.00 | 0.00 | 66 | 1012.1 |
| 20260508150019 | 13 | 9 | 3.2 | 8.0 | 0.00 | 0.00 | 0.00 | 68 | 1012.1 |
| 20260508144520 | 12 | 120 | 0.0 | 6.4 | 0.00 | 0.00 | 0.00 | 71 | 1012.1 |
| 20260508143022 | 12 | 199 | 1.6 | 4.8 | 0.00 | 0.00 | 0.00 | 72 | 1012.1 |
| 20260508141530 | 12 | 272 | 4.8 | 8.0 | 0.00 | 0.00 | 0.00 | 73 | 1012.2 |
| 20260508140004 | 12 | 241 | 0.0 | 4.8 | 0.00 | 0.03 | 0.00 | 74 | 1012.2 |
| 20260508134506 | 11 | 352 | 0.0 | 8.0 | 0.00 | 0.03 | 0.00 | 75 | 1012.2 |
| 20260508133006 | 11 | 352 | 4.8 | 11.3 | 0.00 | 0.03 | 0.00 | 77 | 1012.2 |
| 20260508131503 | 10 | 13 | 8.0 | 12.9 | 0.00 | 0.03 | 0.00 | 78 | 1012.3 |
| 20260508130008 | 10 | 15 | 4.8 | 12.9 | 0.00 | 0.03 | 0.00 | 81 | 1012.5 |
| 20260508124508 | 8 | 321 | 3.2 | 6.4 | 0.00 | 0.03 | 0.00 | 84 | 1012.7 |
| 20260508123006 | 7 | 249 | 1.6 | 4.8 | 0.00 | 0.03 | 0.00 | 87 | 1012.5 |
| 20260508121514 | 7 | 299 | 0.0 | 4.8 | 0.00 | 0.03 | 0.00 | 89 | 1012.5 |
| 20260508120011 | 7 | 323 | 0.0 | 3.2 | 0.00 | 0.03 | 0.00 | 90 | 1012.4 |
| 20260508114511 | 6 | 342 | 0.0 | 1.6 | 0.00 | 0.03 | 0.00 | 91 | 1012.2 |
| 20260508113018 | 6 | 342 | 0.0 | 3.2 | 0.00 | 0.03 | 0.00 | 92 | 1012.0 |
| 20260508111513 | 6 | 342 | 0.0 | 0.0 | 0.00 | 0.03 | 0.00 | 92 | 1012.0 |
| 20260508110015 | 5 | 342 | 0.0 | 0.0 | 0.00 | 0.03 | 0.00 | 91 | 1011.8 |
| 20260508104516 | 5 | 342 | 0.0 | 3.2 | 0.00 | 0.03 | 0.00 | 92 | 1011.8 |
| 20260508103017 | 5 | 259 | 0.0 | 0.0 | 0.00 | 0.03 | 0.00 | 91 | 1011.7 |
| 20260508101518 | 5 | 259 | 0.0 | 0.0 | 0.00 | 0.03 | 0.00 | 91 | 1011.7 |
| 20260508100019 | 5 | 259 | 0.0 | 1.6 | 0.00 | 0.03 | 0.00 | 91 | 1011.6 |
| 20260508094519 | 5 | 259 | 0.0 | 0.0 | 0.00 | 0.03 | 0.00 | 89 | 1011.7 |
| 20260508093022 | 5 | 259 | 0.0 | 0.0 | 0.00 | 0.03 | 0.00 | 89 | 1011.7 |
| 20260508091520 | 5 | 259 | 0.0 | 0.0 | 0.00 | 0.03 | 0.00 | 87 | 1011.6 |
| 20260508090041 | 6 | 259 | 0.0 | 3.2 | 0.00 | 0.03 | 0.00 | 87 | 1011.5 |
| 20260508084523 | 6 | 259 | 0.0 | 1.6 | 0.00 | 0.03 | 0.00 | 86 | 1011.5 |
| 20260508083025 | 6 | 259 | 0.0 | 3.2 | 0.00 | 0.03 | 0.00 | 85 | 1011.6 |
| 20260508081524 | 6 | 259 | 0.0 | 3.2 | 0.00 | 0.03 | 0.00 | 84 | 1011.7 |
| 20260508080026 | 7 | 257 | 0.0 | 4.8 | 0.00 | 0.03 | 0.00 | 83 | 1011.8 |
| 20260508074526 | 7 | 219 | 0.0 | 3.2 | 0.00 | 0.03 | 0.00 | 82 | 1011.8 |
| 20260508073025 | 7 | 211 | 0.0 | 3.2 | 0.00 | 0.03 | 0.00 | 81 | 1011.9 |
| 20260508071529 | 7 | 225 | 0.0 | 1.6 | 0.00 | 0.03 | 0.00 | 80 | 1011.9 |
| 20260508070026 | 7 | 223 | 0.0 | 3.2 | 0.00 | 0.03 | 0.00 | 79 | 1012.0 |
| 20260508064530 | 7 | 219 | 0.0 | 3.2 | 0.00 | 0.03 | 0.00 | 78 | 1012.0 |
| 20260508063027 | 7 | 236 | 1.6 | 3.2 | 0.00 | 0.03 | 0.00 | 77 | 1012.2 |
| 20260508061512 | 7 | 219 | 1.6 | 3.2 | 0.00 | 0.03 | 0.00 | 76 | 1012.3 |
| 20260508060014 | 8 | 236 | 0.0 | 3.2 | 0.00 | 0.03 | 0.00 | 74 | 1012.3 |
| 20260508054513 | 8 | 259 | 1.6 | 4.8 | 0.00 | 0.03 | 0.00 | 73 | 1012.3 |
| 20260508053018 | 8 | 227 | 0.0 | 6.4 | 0.00 | 0.03 | 0.00 | 72 | 1012.5 |
| 20260508051516 | 8 | 267 | 0.0 | 3.2 | 0.00 | 0.03 | 0.00 | 70 | 1012.5 |
| 20260508050016 | 8 | 260 | 0.0 | 3.2 | 0.00 | 0.03 | 0.00 | 69 | 1012.4 |
| 20260508044519 | 8 | 213 | 1.6 | 4.8 | 0.00 | 0.03 | 0.00 | 67 | 1012.3 |
| 20260508043019 | 8 | 214 | 1.6 | 3.2 | 0.00 | 0.03 | 0.00 | 66 | 1012.3 |
| 20260508041522 | 9 | 230 | 1.6 | 3.2 | 0.00 | 0.03 | 0.00 | 65 | 1012.3 |
| 20260508040022 | 9 | 213 | 1.6 | 6.4 | 0.00 | 0.03 | 0.00 | 64 | 1012.3 |
| 20260508034537 | 10 | 237 | 1.6 | 6.4 | 0.00 | 0.03 | 0.03 | 63 | 1012.5 |
| 20260508033021 | 10 | 227 | 0.0 | 8.0 | 0.00 | 0.03 | 0.03 | 63 | 1012.5 |
| 20260508031526 | 10 | 245 | 1.6 | 4.8 | 0.00 | 0.03 | 0.03 | 63 | 1012.6 |
| 20260508030022 | 10 | 234 | 1.6 | 8.0 | 0.00 | 0.03 | 0.03 | 63 | 1012.7 |
| 20260508024547 | 10 | 225 | 0.0 | 3.2 | 0.00 | 0.03 | 0.03 | 63 | 1012.8 |
| 20260508023026 | 10 | 207 | 0.0 | 3.2 | 0.00 | 0.03 | 0.03 | 63 | 1012.7 |
| 20260508021528 | 10 | 227 | 3.2 | 4.8 | 0.00 | 0.03 | 0.03 | 62 | 1012.6 |
| 20260508020027 | 10 | 217 | 1.6 | 8.0 | 0.00 | 0.03 | 0.03 | 61 | 1012.8 |
| 20260508014527 | 10 | 259 | 0.0 | 11.3 | 0.00 | 0.03 | 0.03 | 61 | 1012.7 |
| 20260508013033 | 10 | 243 | 3.2 | 14.5 | 0.00 | 0.03 | 0.03 | 59 | 1012.5 |
| 20260508011508 | 10 | 248 | 3.2 | 6.4 | 0.00 | 0.03 | 0.03 | 57 | 1012.2 |
| 20260508010012 | 11 | 203 | 3.2 | 24.1 | 0.00 | 0.03 | 0.03 | 54 | 1012.2 |
| 20260508004531 | 11 | 278 | 4.8 | 17.7 | 0.00 | 0.03 | 0.03 | 50 | 1012.1 |
| 20260508003012 | 12 | 269 | 1.6 | 6.4 | 0.00 | 0.03 | 0.03 | 45 | 1012.0 |
| 20260508001528 | 12 | 211 | 3.2 | 6.4 | 0.00 | 0.03 | 0.03 | 42 | 1011.9 |
| 20260508000015 | 12 | 248 | 3.2 | 14.5 | 0.00 | 0.03 | 0.03 | 42 | 1011.8 |
| 20260507234519 | 12 | 304 | 3.2 | 19.3 | 0.00 | 0.03 | 0.03 | 40 | 1011.8 |
| 20260507233019 | 13 | 267 | 6.4 | 14.5 | 0.00 | 0.03 | 0.03 | 39 | 1011.7 |
| 20260507231522 | 13 | 288 | 3.2 | 16.1 | 0.00 | 0.03 | 0.03 | 38 | 1011.8 |
| 20260507230021 | 13 | 287 | 1.6 | 16.1 | 0.00 | 0.03 | 0.03 | 38 | 1011.7 |
| 20260507224520 | 14 | 294 | 3.2 | 14.5 | 0.00 | 0.03 | 0.03 | 36 | 1011.8 |
| 20260507223021 | 13 | 244 | 1.6 | 17.7 | 0.00 | 0.03 | 0.03 | 38 | 1011.9 |
| 20260507221524 | 13 | 343 | 9.7 | 19.3 | 0.00 | 0.03 | 0.03 | 36 | 1011.9 |
| 20260507220026 | 14 | 28 | 11.3 | 24.1 | 0.00 | 0.03 | 0.03 | 35 | 1011.9 |
| 20260507214523 | 14 | 294 | 4.8 | 19.3 | 0.00 | 0.03 | 0.03 | 34 | 1011.9 |
| 20260507213030 | 15 | 325 | 8.0 | 22.5 | 0.00 | 0.03 | 0.03 | 35 | 1011.9 |
| 20260507211505 | 15 | 330 | 8.0 | 24.1 | 0.00 | 0.03 | 0.03 | 35 | 1011.9 |
| 20260507210007 | 14 | 360 | 6.4 | 29.0 | 0.00 | 0.03 | 0.03 | 37 | 1012.1 |
| 20260507204508 | 14 | 360 | 6.4 | 17.7 | 0.00 | 0.03 | 0.03 | 39 | 1012.2 |
| 20260507203010 | 14 | 32 | 9.7 | 29.0 | 0.00 | 0.03 | 0.03 | 39 | 1012.3 |
| 20260507201511 | 13 | 79 | 8.0 | 27.4 | 0.00 | 0.03 | 0.03 | 41 | 1012.3 |
| 20260507200009 | 13 | 16 | 11.3 | 24.1 | 0.00 | 0.03 | 0.03 | 39 | 1012.4 |